Location: Unspecified
(0.0000°N, 0.0000°E)
Time: 11:23:44
(UTC+00:00)

Vanguard 1 - Pass Details

Date: 26 November 2019
Orbit: 652 x 3831 km, 34.3° (Epoch: 07 December)

Event Time Altitude Azimuth Distance (km) Brightness Sun altitude
Rises 02:29:30 0° 223° (SW) 7,036 14.3 -45.2°
Reaches altitude 10° 02:34:08 10° 217° (SW) 6,330 14.1 -44.2°
Maximum altitude 02:55:32 51° 145° (SE) 4,432 13.4 -39.5°
Drops below altitude 10° 03:15:53 10° 75° (ENE) 6,144 14.6 -34.9°
Sets 03:20:11 0° 70° (ENE) 6,837 14.9 -34.0°
